DW2516 Weather Reports


time (UTC)temp
F
wind
direction
speed
knots
gust
knots
rain 1hr
in
rain 24hr
in
rain mn
in
humidity
%
barometer
mb
20260507020021 59 0.0 0.0 0.00 0.00 0.00 74 1007.5
20260507014519 59 0.0 0.0 0.00 0.00 0.00 74 1007.1
20260507013011 60 0.0 0.0 0.00 0.00 0.00 73 1007.0
20260507011516 59 0.0 0.0 0.00 0.00 0.00 75 1007.1
20260507010021 59 0.0 0.0 0.00 0.00 0.00 76 1006.9
20260507004507 59 0.0 0.0 0.00 0.00 0.00 76 1006.8
20260507003005 59 0.0 0.0 0.00 0.00 0.00 76 1006.8
20260507001504 60 0.0 0.0 0.00 0.00 0.00 75 1006.8
20260507000003 60 0.0 0.0 0.00 0.00 0.00 75 1006.6
20260506234626 60 0.0 0.0 0.00 0.00 0.00 74 1006.6
20260506233057 60 0.0 0.0 0.00 0.00 0.00 74 1006.4
20260506231546 61 0.0 0.0 0.00 0.00 0.00 73 1006.0
20260506230044 61 0.0 0.0 0.00 0.00 0.00 73 1005.9
20260506224545 61 0.0 0.0 0.00 0.00 0.00 72 1005.7
20260506223029 62 0.0 0.0 0.00 0.00 0.00 72 1005.5
20260506221527 62 0.0 0.0 0.00 0.00 0.00 72 1005.5
20260506220030 62 0.0 0.0 0.00 0.00 0.00 72 1005.2
20260506214523 62 0.0 0.0 0.00 0.00 0.00 72 1005.2
20260506213028 62 0.0 0.0 0.00 0.00 0.00 71 1005.1
20260506211524 63 0.0 0.0 0.00 0.00 0.00 71 1005.0
20260506210008 63 0.0 0.0 0.00 0.00 0.00 70 1005.1
20260506204509 63 0.0 0.0 0.00 0.00 0.00 69 1004.9
20260506203019 64 0.0 0.0 0.00 0.00 0.00 68 1004.8
20260506201509 64 0.0 0.0 0.00 0.00 0.00 67 1004.8
20260506200005 64 0.0 0.0 0.00 0.00 0.00 67 1004.8
20260506194507 65 0.0 0.0 0.00 0.00 0.00 66 1004.6
20260506193003 65 0.0 0.0 0.00 0.00 0.00 65 1004.5
20260506191506 65 0.0 0.0 0.00 0.00 0.00 64 1004.4
20260506190006 66 0.0 0.0 0.00 0.00 0.00 63 1004.3
20260506184605 66 0.0 0.0 0.00 0.00 0.00 63 1004.0
20260506183104 66 0.0 0.0 0.00 0.00 0.00 62 1003.7
20260506181600 67 0.0 0.0 0.00 0.00 0.00 61 1003.5
20260506180056 67 0.0 0.0 0.00 0.00 0.00 60 1003.8
20260506174601 68 0.0 0.0 0.00 0.00 0.00 59 1003.7
20260506173108 68 0.0 0.0 0.00 0.00 0.00 58 1003.7
20260506171559 69 0.0 0.0 0.00 0.00 0.00 57 1003.5
20260506170052 69 0.0 0.0 0.00 0.00 0.00 56 1003.4
20260506164556 70 0.0 0.0 0.00 0.00 0.00 54 1003.7
20260506163054 71 0.0 0.0 0.00 0.00 0.00 52 1003.7
20260506161602 72 0.0 0.0 0.00 0.00 0.00 51 1003.6
20260506160049 73 0.0 0.0 0.00 0.00 0.00 50 1003.8
20260506154547 73 0.0 0.0 0.00 0.00 0.00 51 1003.8
20260506153044 73 0.0 0.0 0.00 0.00 0.00 50 1004.0
20260506151558 73 0.0 0.0 0.00 0.00 0.00 50 1004.0
20260506150038 74 0.0 0.0 0.00 0.00 0.00 49 1003.9
20260506144537 74 0.0 0.0 0.00 0.00 0.00 49 1004.1
20260506143045 74 0.0 0.0 0.00 0.00 0.00 50 1004.1
20260506141535 75 0.0 0.0 0.00 0.00 0.00 49 1004.4
20260506140038 75 0.0 0.0 0.00 0.00 0.00 49 1004.4
20260506134534 75 0.0 0.0 0.00 0.00 0.00 48 1004.5
20260506133034 74 0.0 0.0 0.00 0.00 0.00 47 1004.6
20260506131531 76 0.0 0.0 0.00 0.00 0.00 46 1004.7
20260506130030 75 0.0 0.0 0.00 0.00 0.00 46 1004.8
20260506124529 75 0.0 0.0 0.00 0.00 0.00 49 1005.0
20260506123029 75 0.0 0.0 0.00 0.00 0.00 49 1005.3
20260506121527 75 0.0 0.0 0.00 0.00 0.00 48 1005.4
20260506120022 75 0.0 0.0 0.00 0.00 0.00 52 1005.5
20260506114526 74 0.0 0.0 0.00 0.00 0.00 53 1005.5
20260506113019 73 0.0 0.0 0.00 0.00 0.00 54 1005.7
20260506111517 73 0.0 0.0 0.00 0.00 0.00 55 1005.7
20260506110015 74 0.0 0.0 0.00 0.00 0.00 55 1006.1
20260506104513 73 0.0 0.0 0.00 0.00 0.00 57 1006.3
20260506103015 72 0.0 0.0 0.00 0.00 0.00 58 1006.5
20260506101513 72 0.0 0.0 0.00 0.00 0.00 59 1006.7
20260506100007 72 0.0 0.0 0.00 0.00 0.00 57 1006.8
20260506094513 72 0.0 0.0 0.00 0.00 0.00 57 1006.9
20260506093004 72 0.0 0.0 0.00 0.00 0.00 58 1007.1
20260506091502 72 0.0 0.0 0.00 0.00 0.00 59 1006.9
20260506090101 70 0.0 0.0 0.00 0.00 0.00 61 1006.9
20260506084555 70 0.0 0.0 0.00 0.00 0.00 60 1007.0
20260506083050 70 0.0 0.0 0.00 0.00 0.00 61 1007.0
20260506081548 70 0.0 0.0 0.00 0.00 0.00 62 1006.9
20260506073045 68 0.0 0.0 0.00 0.00 0.00 65 1006.9
20260506071548 67 0.0 0.0 0.00 0.00 0.00 65 1007.0
20260506061520 61 0.0 0.0 0.00 0.00 0.00 76 1007.2
20260506044542 56 0.0 0.0 0.00 0.00 0.00 81 1006.7
20260506043040 55 0.0 0.0 0.00 0.00 0.00 82 1006.6
20260506041551 55 0.0 0.0 0.00 0.00 0.00 82 1006.5
20260506040038 55 0.0 0.0 0.00 0.00 0.00 82 1006.6
20260506034533 55 0.0 0.0 0.00 0.00 0.00 81 1006.4
20260506033033 55 0.0 0.0 0.00 0.00 0.00 81 1006.5
20260506031530 55 0.0 0.0 0.00 0.00 0.00 81 1006.3
20260506030028 55 0.0 0.0 0.00 0.00 0.00 81 1006.3
20260506024522 55 0.0 0.0 0.00 0.00 0.00 80 1006.2
20260506023013 55 0.0 0.0 0.00 0.00 0.00 79 1006.1
20260506021512 56 0.0 0.0 0.00 0.00 0.00 79 1006.0